User: anonymous   Login
Location: Mentone
(34.5413°N, 85.5351°W)
Time: 15:35:57
(UTC-05:00)
Language:

ADEOS Rocket - Orbit

View from above orbital plane
View from above orbital plane
View from above satellite
View from above satellite

Ground track
Ground track

The orbit data is extracted from the following two-line orbital elements,

1 24279U 96046C   17142.90103538 -.00000038 +00000-0 -76607-6 0  9998
2 24279 098.7515 089.9828 0300125 353.3949 042.2757 13.47084602020567
Epoch (UTC): 22 May 2017 21:37:29
Eccentricity: 0.0300125
inclination: 98.7515°
perigee height: 859 km
apogee height: 1307 km
right ascension of ascending node: 89.9828°
argument of perigee: 353.3949°
revolutions per day: 13.47084602
mean anomaly at epoch: 42.2757°
orbit number at epoch: 2056

The dashed part of the orbit path shows where the satellite is in the earth's shadow,  

DLR